Location: ??
(35.4627°N, 139.3695°E)
Time: 15:48:56
(UTC+00:00)

ASTRO F (AKARI) - Pass Details

Date: 25 November 2020
Orbit: 398 x 519 km, 98.2° (Epoch: 21 January)

Event Time Altitude Azimuth Distance (km) Brightness Sun altitude
Rises 20:20:34 0° 10° (N) 2,314 8.0 -13.8°
Reaches altitude 10° 20:22:32 10° 8° (N) 1,454 6.9 -13.4°
Maximum altitude 20:25:37 72° 284° (WNW) 428 4.0 -12.8°
Drops below altitude 10° 20:28:43 10° 199° (SSW) 1,470 7.0 -12.2°
Sets 20:30:44 0° 198° (SSW) 2,342 8.0 -11.8°
